Overview Statistics Trail Chart Weather Telemetry Raw packets
 

This is the latest recevied weather packets stored in our database for station/object SV9FBP-13. If no packets are shown the sender has not sent any weather packets the latest 10 day(s).

<< 29 30 31 32 33 34 35 >>
Time Temp. Humidity Pressure Rain* Wind** Luminosity Snow
1787970249 26.67° C 56% 1009.6 hPa 0 mm - - -
1787969337 27.22° C 56% 1009.6 hPa 0 mm - - -
1787968434 26.67° C 61% 1009.7 hPa 0 mm - - -
1787967532 26.67° C 64% 1009.6 hPa 0 mm - - -
1787966630 27.22° C 62% 1009.8 hPa 0 mm - - -
1787965727 27.22° C 62% 1009.6 hPa 0 mm - - -
1787964826 27.22° C 62% 1009.7 hPa 0 mm - - -
1787963923 27.22° C 61% 1009.7 hPa 0 mm - - -
1787963021 27.78° C 55% 1010 hPa 0 mm - - -
1787962122 27.78° C 54% 1009.8 hPa 0 mm - - -
1787961217 28.33° C 52% 1009.9 hPa 0 mm - - -
1787960315 28.33° C 50% 1009.8 hPa 0 mm - - -
1787959413 28.33° C 49% 1009.8 hPa 0 mm - - -
1787958510 28.33° C 48% 1009.8 hPa 0 mm - - -
1787957609 28.89° C 48% 1009.9 hPa 0 mm - - -
1787956706 28.89° C 48% 1009.9 hPa 0 mm - - -
1787955804 28.89° C 46% 1009.9 hPa 0 mm - - -
1787954902 28.89° C 46% 1009.9 hPa 0 mm - - -
1787953999 28.89° C 44% 1010.1 hPa 0 mm - - -
1787953098 29.44° C 43% 1010.1 hPa 0 mm - - -
1787952195 29.44° C 42% 1009.9 hPa 0 mm - - -
1787951294 30° C 41% 1009.9 hPa 0 mm - - -
1787950391 30° C 40% 1009.7 hPa 0 mm - - -
1787949488 30° C 38% 1009.8 hPa 0 mm - - -
1787948587 30.56° C 38% 1009.8 hPa 0 mm - - -

* Rain latest hour (hover to see other rain measurements)
** Current wind speed in m/s (hover to see current wind gust speed)